GEFSNGP_con_prob3kmehi_120.txt.gz
EHI
0 0 0 0 0 0 0 0 0 0 1 7 14 18 21 30 42 51 58 67 71 69 66 63 56 49 44 37 33 33 32 30 31 34 34 34 32 27 24 22 21 19 17 17
0 0 0 0 0 0 0 0 0 0 2 8 16 22 26 33 43 53 59 67 70 69 67 62 56 52 47 40 35 34 30 25 24 28 28 26 24 22 20 19 18 17 16 16
0 0 0 0 0 0 0 1 1 3 6 12 23 32 34 37 46 55 62 68 69 66 64 61 56 53 50 43 37 33 29 22 18 20 20 19 18 18 18 18 16 15 15 15
0 0 0 0 0 0 1 2 5 8 14 23 36 44 43 43 50 59 66 69 66 60 59 59 54 50 47 42 36 32 29 25 19 17 16 17 18 19 20 19 17 16 16 15
0 0 0 0 0 1 1 4 9 15 22 31 40 45 46 50 56 63 68 68 63 55 53 55 51 46 43 38 33 30 31 29 24 19 16 16 18 20 20 20 18 17 15 14
0 0 0 0 0 1 2 7 15 23 30 37 41 44 51 57 60 64 65 63 58 51 47 48 47 45 41 35 30 29 31 31 26 21 18 16 16 17 19 19 17 14 13 13
0 0 0 1 2 6 12 19 28 37 43 48 51 53 57 58 56 55 53 50 47 44 42 42 43 41 39 34 30 30 31 28 23 19 16 13 12 13 16 17 14 12 11 11
0 1 5 10 12 16 25 32 36 43 49 51 51 50 48 46 43 40 37 36 36 37 37 38 37 35 33 32 29 27 26 24 20 16 13 11 10 11 13 13 12 10 9 9
1 3 11 19 21 23 28 31 33 36 37 35 33 33 33 32 30 29 28 28 30 32 33 33 32 29 27 27 25 20 18 18 17 14 11 8 8 9 9 9 8 8 7 7
2 5 10 15 16 18 20 22 24 25 24 20 21 24 26 26 25 24 23 24 25 27 28 28 26 24 22 22 20 16 14 14 14 13 10 7 5 5 5 4 4 5 6 5
3 4 4 5 6 9 11 13 15 18 18 17 19 22 22 22 21 21 20 18 19 21 21 21 21 20 19 19 18 16 14 12 12 11 9 6 3 2 1 1 1 3 3 2
2 2 2 2 4 6 5 5 7 11 13 14 16 17 16 15 16 15 14 13 14 15 15 16 16 15 15 17 17 15 12 11 10 9 8 5 1 0 0 0 0 1 1 0
3 3 2 2 4 4 3 2 3 7 9 10 11 11 10 9 8 9 9 9 9 10 13 14 14 12 12 14 14 12 10 9 8 7 6 3 1 0 0 0 0 0 0 0
4 3 3 3 2 2 1 0 1 4 5 5 6 6 5 4 4 5 6 7 7 7 9 12 13 13 12 11 10 9 8 6 5 4 3 1 0 0 0 0 0 0 0 0
2 2 2 2 1 0 0 1 1 1 1 2 2 2 1 1 3 4 4 5 4 4 6 9 12 14 13 10 8 7 6 4 3 3 2 1 0 0 0 0 0 0 0 0
0 1 1 1 0 0 0 1 1 0 0 0 0 1 1 1 2 2 3 3 3 3 5 7 10 11 11 9 6 5 4 3 2 2 2 1 0 0 0 0 0 0 0 0
0 0 0 0 0 0 0 1 1 0 0 0 0 0 1 1 1 1 1 1 2 2 3 5 6 6 6 5 4 3 2 1 1 1 1 0 0 0 0 0 0 0 0 0
0 0 0 0 0 0 0 0 0 0 0 0 0 0 0 0 0 0 0 0 1 1 1 1 2 2 2 1 1 1 1 0 0 0 0 0 0 0 0 0 0 0 0 0
1 0 0 0 1 1 1 0 0 0 1 1 1 0 0 0 0 0 0 0 0 0 0 0 0 0 0 0 0 0 0 0 0 0 0 0 0 0 0 0 0 0 0 0
1 0 0 0 1 2 1 1 1 1 2 2 1 0 0 0 0 0 0 0 0 0 0 0 0 0 0 0 0 0 0 0 0 0 0 0 0 0 0 0 0 0 0 0
1 0 0 0 1 1 2 2 1 1 2 1 1 0 0 0 0 0 0 0 0 0 0 0 0 0 0 0 0 0 0 0 0 0 0 0 0 0 0 0 0 0 0 0
0 0 0 0 0 1 2 2 1 1 2 1 0 0 0 0 0 0 0 0 0 0 0 0 0 0 0 0 0 0 0 0 0 0 0 0 0 0 0 0 0 0 0 0
0 0 0 1 1 2 2 1 1 2 2 1 0 0 0 0 0 0 0 0 0 0 0 0 0 0 0 0 0 0 0 0 0 0 0 0 0 0 0 0 0 0 0 0
1 1 1 2 2 3 2 1 1 2 2 1 0 0 0 0 0 0 0 0 0 0 0 0 0 0 0 0 0 0 0 0 0 0 0 0 0 0 0 0 0 0 0 0
2 2 2 2 2 2 2 1 1 2 2 1 0 0 0 0 0 0 0 0 0 0 0 0 0 0 0 0 0 0 0 0 0 0 0 0 0 0 0 0 0 0 0 0
2 2 2 1 1 1 1 0 0 1 1 0 0 0 0 0 0 0 0 0 0 0 0 0 0 0 0 0 0 0 0 0 0 0 0 0 0 0 0 0 0 0 0 0
1 1 1 0 0 1 0 0 0 0 0 0 0 0 0 0 0 0 0 0 0 0 0 0 0 0 0 0 0 0 0 0 0 0 0 0 0 0 0 0 0 0 0 0

GEFSNGP_con_prob3kmehi_126.txt.gz
EHI
0 0 0 0 0 0 0 0 0 0 1 3 7 14 24 37 48 53 48 40 35 29 21 16 12 12 13 12 11 11 12 11 9 8 8 8 6 6 5 4 5 6 6 5
0 0 0 0 0 0 0 0 0 1 2 6 12 18 26 38 50 54 48 41 39 35 28 22 19 16 15 14 12 13 14 13 10 10 9 8 6 5 4 4 5 6 6 6
0 0 0 0 0 1 2 2 1 2 6 13 19 25 29 37 48 54 49 44 43 40 34 29 26 20 17 15 15 15 16 15 14 13 11 8 7 6 4 4 4 5 6 6
0 0 0 0 0 2 4 5 4 6 14 22 29 34 35 37 44 51 49 46 43 38 35 33 29 22 18 16 15 15 16 15 15 13 10 8 8 7 6 4 4 5 5 6
0 0 0 0 0 2 7 9 10 14 22 29 35 40 40 39 43 48 47 43 38 33 30 29 25 22 19 16 15 14 14 12 11 10 8 6 6 6 6 5 4 4 4 4
0 0 0 0 1 3 7 11 13 18 24 28 31 35 36 36 38 40 39 35 31 27 23 19 17 17 16 14 13 12 11 9 7 6 5 4 3 3 4 4 3 2 2 3
0 0 0 1 2 2 5 9 14 18 21 24 24 26 29 30 29 27 26 25 25 23 19 14 10 9 8 7 6 6 6 5 4 3 2 1 1 1 2 2 2 1 1 2
0 0 0 1 2 2 3 8 13 16 18 20 21 21 24 24 21 18 17 17 19 19 17 12 8 5 3 2 1 2 2 1 1 1 1 0 0 0 1 1 1 0 0 1
0 0 0 2 3 3 4 10 14 15 15 17 18 19 19 18 16 15 14 14 14 15 13 9 7 4 3 2 1 1 1 0 0 0 0 0 0 0 0 0 0 0 0 0
0 0 1 3 4 5 7 12 16 16 14 14 15 14 13 12 11 11 11 11 11 11 9 8 6 4 3 3 3 2 2 1 1 0 0 0 0 0 0 0 0 0 0 0
0 0 0 2 3 5 8 12 16 16 14 12 11 9 7 6 6 7 7 7 8 8 7 6 5 4 3 3 3 3 4 3 2 1 0 0 0 0 0 0 0 0 0 0
0 0 0 1 3 5 7 8 11 12 10 7 5 3 2 2 4 5 5 5 5 5 5 5 5 4 3 3 3 3 3 2 1 1 0 0 0 0 0 0 0 0 0 0
0 0 0 1 4 6 5 5 6 6 4 2 1 0 0 1 3 4 5 5 4 5 4 3 3 3 3 3 2 1 1 0 0 1 1 0 0 0 0 0 0 0 0 0
0 0 0 1 4 4 3 3 4 3 1 0 0 0 0 0 1 2 3 3 4 4 3 1 1 2 3 3 2 0 0 0 0 0 1 0 0 0 0 0 0 0 0 0
0 0 0 0 1 1 1 2 3 2 1 0 0 0 0 0 0 0 1 1 2 2 1 0 0 1 1 2 1 0 0 0 0 0 0 0 0 0 0 0 0 0 0 0
0 0 0 0 0 0 1 2 2 1 0 0 0 0 0 0 0 0 0 0 1 1 0 0 0 0 0 1 1 0 0 0 0 0 0 0 0 0 0 0 0 0 0 0
0 0 0 0 0 0 0 1 1 0 0 0 0 0 0 0 0 0 0 0 0 0 0 0 0 0 0 0 0 0 0 0 0 0 0 0 0 0 0 0 0 0 0 0
0 0 0 0 0 0 0 0 0 0 0 0 0 0 0 0 0 0 0 0 0 0 0 0 0 0 0 0 0 0 0 0 0 0 0 0 0 0 0 0 0 0 0 0
0 0 0 0 0 0 0 0 0 0 0 0 0 0 0 0 0 0 0 0 0 0 0 0 0 0 0 0 0 0 0 0 0 0 0 0 0 0 0 0 0 0 0 0
0 0 0 0 0 0 0 0 0 0 0 0 0 0 0 0 0 0 0 0 0 0 0 0 0 0 0 0 0 0 0 0 0 0 0 0 0 0 0 0 0 0 0 0
0 0 0 0 0 0 0 0 0 0 0 0 0 0 0 0 0 0 0 0 0 0 0 0 0 0 0 0 0 0 0 0 0 0 0 0 0 0 0 0 0 0 0 0
0 0 0 0 0 0 0 0 0 0 0 0 0 0 0 0 0 0 0 0 0 0 0 0 0 0 0 0 0 0 0 0 0 0 0 0 0 0 0 0 0 0 0 0
0 0 0 0 0 0 0 0 0 0 0 0 0 0 0 0 0 0 0 0 0 0 0 0 0 0 0 0 0 0 0 0 0 0 0 0 0 0 0 0 0 0 0 0
0 0 0 0 0 0 0 0 0 0 0 0 0 0 0 0 0 0 0 0 0 0 0 0 0 0 0 0 0 0 0 0 0 0 0 0 0 0 0 0 0 0 0 0
0 0 0 0 0 0 0 0 0 0 0 0 0 0 0 0 0 0 0 0 0 0 0 0 0 0 0 0 0 0 0 0 0 0 0 0 0 0 0 0 0 0 0 0
0 0 0 0 0 0 0 0 0 0 0 0 0 0 0 0 0 0 0 0 0 0 0 0 0 0 0 0 0 0 0 0 0 0 0 0 0 0 0 0 0 0 0 0
0 0 0 0 0 0 0 0 0 0 0 0 0 0 0 0 0 0 0 0 0 0 0 0 0 0 0 0 0 0 0 0 0 0 0 0 0 0 0 0 0 0 0 0

GEFSNGP_con_prob3kmehi_132.txt.gz
EHI
0 0 0 0 0 0 0 0 0 0 0 0 0 1 2 7 13 18 19 18 16 14 10 7 6 5 4 3 3 3 3 2 2 2 3 2 1 1 1 0 0 1 1 1
0 0 0 0 0 0 0 0 0 0 0 0 0 1 2 7 15 20 20 18 15 12 9 7 5 4 3 2 3 3 2 1 1 1 2 2 1 2 2 1 0 0 0 0
0 0 0 0 0 0 0 0 0 0 0 0 1 2 4 9 16 19 19 16 14 11 9 7 5 5 3 2 2 1 1 0 0 0 1 1 1 2 2 2 1 0 0 0
0 0 0 1 1 1 0 0 0 0 1 2 3 5 7 10 14 15 15 12 11 11 10 8 7 6 4 3 1 0 0 0 0 0 0 0 0 1 1 2 1 0 0 0
0 0 0 1 2 1 0 0 0 1 3 5 7 8 8 9 12 12 9 6 7 10 12 10 8 6 6 5 3 1 0 0 0 0 0 0 0 0 0 1 1 0 0 0
0 0 0 1 1 1 0 0 0 1 4 7 8 7 5 6 9 9 5 4 7 11 12 9 6 6 7 7 4 2 0 0 0 0 0 0 0 0 0 0 0 0 0 0
0 0 0 0 0 0 0 0 0 1 3 5 5 2 2 3 6 6 4 4 9 11 9 5 3 4 6 5 3 1 0 0 0 0 0 0 0 0 0 0 0 0 0 0
0 0 0 0 0 0 0 0 0 0 2 3 2 0 1 4 5 4 4 5 7 7 5 3 1 2 3 2 1 0 0 0 0 0 0 0 0 0 0 0 0 0 0 0
0 0 0 0 0 0 1 1 1 0 1 2 2 1 2 3 3 2 3 5 4 4 4 3 1 1 1 0 0 0 0 0 0 0 0 0 0 0 0 0 0 0 0 0
0 0 0 0 0 1 2 2 1 0 1 2 2 2 1 1 1 1 2 3 2 2 3 2 1 0 0 0 0 0 0 0 0 0 0 0 0 0 0 0 0 0 0 0
0 0 0 0 0 1 2 1 0 0 0 1 3 2 1 0 0 0 1 1 1 1 1 1 0 0 0 0 0 0 0 0 0 0 0 0 0 0 0 0 0 0 0 0
0 0 0 0 0 1 1 1 0 0 0 1 2 2 1 0 0 0 0 0 0 0 0 0 0 1 1 1 1 0 0 0 0 0 0 0 0 0 0 0 0 0 0 0
0 0 0 0 0 0 1 1 0 0 0 0 1 1 0 0 0 0 0 0 0 0 0 0 1 2 3 2 1 1 1 1 0 0 0 0 0 0 0 0 0 0 0 0
0 0 0 0 0 0 0 0 0 0 0 0 0 0 0 0 0 0 0 0 0 0 0 0 1 2 2 2 2 2 2 1 0 0 0 0 0 0 0 0 0 0 0 0
0 0 0 0 0 0 0 0 0 0 0 0 0 0 0 0 0 0 0 0 0 0 0 0 0 1 1 1 1 1 1 1 0 0 0 0 0 0 0 0 0 0 0 0
0 0 0 0 0 0 0 0 0 0 0 0 0 0 0 0 0 0 0 0 0 0 0 0 0 0 0 0 0 0 0 0 0 0 0 0 0 0 0 0 0 0 0 0
0 0 0 0 0 0 0 0 0 0 0 0 0 0 0 0 0 0 0 0 0 0 0 0 0 0 0 0 0 0 0 0 0 0 0 0 0 0 0 0 0 0 0 0
0 0 0 0 0 0 0 0 0 0 0 0 0 0 0 0 0 0 0 0 0 0 0 0 0 0 0 0 0 0 0 0 0 0 0 0 0 0 0 0 0 0 0 0
0 0 0 0 0 0 0 0 0 0 0 0 0 0 0 0 0 0 0 0 0 0 0 0 0 0 0 0 0 0 0 0 0 0 0 0 0 0 0 0 0 0 0 0
0 0 0 0 0 0 0 0 0 0 0 0 0 0 0 0 0 0 0 0 0 0 0 0 0 0 0 0 0 0 0 0 0 0 0 0 0 0 0 0 0 0 0 0
0 0 0 0 0 0 0 0 0 0 0 0 0 0 0 0 0 0 0 0 0 0 0 0 0 0 0 0 0 0 0 0 0 0 0 0 0 0 0 0 0 0 0 0
0 0 0 0 0 0 0 0 0 0 0 0 0 0 0 0 0 0 0 0 0 0 0 0 0 0 0 0 0 0 0 0 0 0 0 0 0 0 0 0 0 0 0 0
0 0 0 0 0 0 0 0 0 0 0 0 0 0 0 0 0 0 0 0 0 0 0 0 0 0 0 0 0 0 0 0 0 0 0 0 0 0 0 0 0 0 0 0
0 0 0 0 0 0 0 0 0 0 0 0 0 0 0 0 0 0 0 0 0 0 0 0 0 0 0 0 0 0 0 0 0 0 0 0 0 0 0 0 0 0 0 0
0 0 0 0 0 0 0 0 0 0 0 0 0 0 0 0 0 0 0 0 0 0 0 0 0 0 0 0 0 0 0 0 0 0 0 0 0 0 0 0 0 0 0 0
0 0 0 0 0 0 0 0 0 0 0 0 0 0 0 0 0 0 0 0 0 0 0 0 0 0 0 0 0 0 0 0 0 0 0 0 0 0 0 0 0 0 0 0
0 0 0 0 0 0 0 0 0 0 0 0 0 0 0 0 0 0 0 0 0 0 0 0 0 0 0 0 0 0 0 0 0 0 0 0 0 0 0 0 0 0 0 0

GEFSNGP_con_prob3kmehi_138.txt.gz
EHI
0 0 0 0 0 0 0 0 0 0 0 1 4 7 11 19 33 45 52 56 57 59 60 56 48 40 33 31 28 22 18 16 13 10 8 7 8 7 6 6 7 8 9 9
0 0 0 0 0 0 0 0 0 0 0 2 5 8 12 19 30 41 50 56 59 60 62 59 52 44 37 32 28 23 18 16 14 11 9 8 8 7 8 8 7 8 10 9
0 0 0 0 0 0 0 0 0 0 1 3 7 10 12 18 26 34 45 55 60 64 66 62 55 49 43 38 32 27 22 19 16 15 12 9 8 9 9 9 8 8 9 8
0 0 0 0 0 0 0 0 1 1 2 5 9 12 14 18 23 29 40 52 59 63 66 63 57 53 50 44 38 34 30 24 20 19 16 12 10 11 11 9 8 7 7 7
0 0 0 0 0 0 0 0 1 2 4 8 10 11 15 22 26 32 41 52 58 61 63 62 58 56 54 48 43 40 36 29 24 21 19 16 14 14 12 10 8 7 6 7
0 0 0 0 1 1 0 1 3 5 8 12 12 14 22 32 37 41 49 57 60 60 61 61 58 57 55 51 44 39 35 31 27 24 22 20 18 17 14 10 7 6 6 6
0 0 1 1 1 3 6 9 11 14 18 20 23 29 37 43 47 51 55 58 59 58 59 59 57 55 53 49 42 35 31 30 28 25 21 20 19 17 14 11 9 7 5 3
0 0 1 4 6 11 19 26 27 27 29 32 38 43 44 46 49 49 49 52 54 52 51 51 51 50 47 42 36 30 27 26 25 22 18 17 17 15 12 11 10 8 5 2
1 2 3 7 13 20 29 36 39 37 36 38 42 43 40 41 43 42 41 44 47 44 40 39 39 39 37 31 25 22 21 20 19 17 15 14 14 13 11 9 8 6 3 1
3 4 6 9 15 21 27 34 39 39 36 35 37 36 33 35 39 39 37 37 38 35 30 27 27 27 24 19 16 15 15 15 14 12 11 11 11 9 8 6 5 4 3 2
4 5 7 11 15 20 23 27 30 32 31 29 29 29 29 31 33 31 27 24 24 22 19 16 17 16 13 10 11 12 12 11 11 9 7 6 6 5 4 3 3 3 3 3
5 6 9 13 18 20 21 22 24 26 27 25 24 24 25 24 22 18 13 11 11 10 10 10 10 9 7 6 7 8 8 8 8 7 4 4 5 4 2 1 1 1 1 2
5 6 9 14 17 19 19 20 21 22 22 21 19 18 18 16 13 9 7 6 6 6 7 7 7 5 4 4 4 5 4 4 5 5 4 4 5 4 2 1 0 0 0 0
3 4 7 11 15 17 16 16 15 14 14 13 13 12 12 11 9 7 6 6 6 6 6 6 5 3 1 2 3 3 2 2 3 4 4 3 4 4 3 1 1 0 0 0
1 2 4 7 10 12 11 8 6 6 7 8 8 8 8 8 7 7 6 6 6 6 6 5 4 2 1 1 2 2 1 0 1 2 3 3 3 3 3 2 1 0 0 0
1 1 2 4 5 5 5 3 2 2 3 5 5 5 5 6 7 6 6 6 6 6 6 4 2 1 0 0 1 1 0 0 0 1 1 2 2 2 2 2 1 0 0 0
2 1 1 1 1 2 2 2 1 1 1 1 2 2 2 4 5 5 5 6 6 6 5 3 1 0 0 0 0 0 0 0 0 0 0 1 1 1 1 1 0 0 0 0
1 1 0 0 0 1 1 1 0 0 0 0 0 0 0 2 3 4 4 4 4 4 3 2 1 0 0 0 0 0 0 0 0 0 0 0 0 0 0 0 0 0 0 0
0 0 0 0 0 0 0 0 0 0 0 1 1 1 0 2 3 3 3 3 2 2 1 1 0 0 0 0 0 0 0 0 0 0 0 0 0 0 0 0 0 0 0 0
0 0 0 0 0 0 0 0 0 1 1 1 2 1 0 1 2 2 2 1 1 1 0 0 0 0 0 0 0 0 0 0 0 0 0 0 0 0 0 0 0 0 0 0
0 0 0 0 0 0 0 0 1 2 2 2 2 1 0 0 0 0 0 0 0 0 0 0 0 0 0 0 0 0 0 0 0 0 0 0 0 0 0 0 0 0 0 0
1 0 0 0 0 0 0 1 2 3 3 3 2 0 0 0 0 0 0 0 0 0 0 0 0 0 0 0 0 0 0 0 0 0 0 0 0 0 0 0 0 0 0 0
1 0 0 0 0 0 0 1 3 4 4 3 2 1 1 0 0 0 0 0 0 0 0 0 0 0 0 0 0 0 0 0 0 0 0 0 0 0 0 0 0 0 0 0
1 0 0 0 0 0 1 1 3 4 4 3 3 2 1 1 0 0 0 0 0 0 0 0 0 0 0 0 0 0 0 0 0 0 0 0 0 0 0 0 0 0 0 0
0 0 0 0 0 0 1 2 3 3 3 3 3 3 2 1 1 0 0 0 0 0 0 0 0 0 0 0 0 0 0 0 0 0 0 0 0 0 0 0 0 0 0 0
0 0 0 0 0 0 1 1 1 2 2 2 3 2 1 1 0 0 0 0 0 0 0 0 0 0 0 0 0 0 0 0 0 0 0 0 0 0 0 0 0 0 0 0
0 0 0 0 0 0 0 0 0 1 2 2 2 2 1 0 0 0 0 0 0 0 0 0 0 0 0 0 0 0 0 0 0 0 0 0 0 0 0 0 0 0 0 0

GEFSNGP_con_prob3kmehi_144.txt.gz
EHI
0 0 0 0 0 0 0 0 0 0 1 2 6 10 15 22 34 46 60 72 81 87 91 91 88 82 75 67 63 60 58 55 51 45 42 39 37 35 32 28 23 22 21 19
0 0 0 0 0 0 0 0 0 0 1 5 9 13 18 25 35 47 58 70 78 84 88 89 87 83 78 73 67 63 60 56 52 47 42 38 35 36 37 33 27 25 23 21
0 0 0 0 0 0 0 0 0 1 3 9 17 23 26 32 41 50 58 68 77 83 87 88 86 84 82 77 71 66 62 56 51 46 40 36 34 35 36 34 29 26 25 21
0 0 0 0 0 0 0 0 1 2 6 13 24 31 34 41 49 56 63 72 80 84 87 89 87 85 82 77 71 67 63 56 49 43 38 35 34 34 34 31 28 28 27 23
0 0 0 0 0 0 0 1 2 4 8 14 21 31 42 51 58 66 74 80 84 85 87 90 89 85 81 77 72 67 63 57 48 43 41 38 36 35 34 31 30 29 28 25
0 0 0 0 0 0 1 4 8 12 15 20 27 40 55 63 68 76 82 84 85 87 89 90 89 87 82 77 72 66 63 58 51 47 45 41 38 37 34 30 29 27 25 24
0 0 1 2 2 5 13 22 27 29 34 42 52 63 70 72 73 79 83 84 84 86 86 85 85 84 81 77 71 65 61 57 53 49 44 42 40 37 33 29 27 24 23 21
0 1 6 12 13 20 36 47 48 47 53 63 71 76 76 74 73 75 79 81 80 79 78 77 76 75 74 72 68 62 58 54 51 45 41 39 38 36 33 30 25 21 19 18
3 7 16 25 30 36 47 54 52 51 56 66 73 74 73 71 69 71 73 73 70 69 69 68 67 64 63 64 61 58 54 49 44 41 38 35 32 31 30 27 22 17 15 14
7 13 21 28 34 38 41 42 42 46 53 60 66 67 66 65 67 68 67 64 62 61 60 59 57 55 53 53 52 50 45 40 35 33 33 31 27 24 22 19 15 12 11 11
11 16 22 24 28 32 34 35 36 41 48 53 55 57 58 60 62 61 58 55 54 53 49 45 43 41 40 40 41 40 35 30 26 23 23 24 21 16 12 9 7 6 7 7
13 19 23 23 23 24 27 29 32 35 39 42 44 46 50 52 52 49 45 42 40 37 33 29 27 26 27 29 29 28 26 22 17 14 14 15 14 9 5 3 1 1 2 2
14 17 20 20 18 18 21 24 26 29 31 33 36 38 40 42 41 39 35 30 26 24 20 18 17 18 19 20 20 20 18 13 10 8 7 8 8 6 3 1 0 0 0 0
10 11 12 14 16 17 18 20 24 26 27 28 30 32 33 34 35 33 28 23 20 18 16 14 14 14 14 14 14 14 11 7 5 5 4 4 5 4 3 3 2 1 0 0
5 4 6 10 14 15 17 20 22 22 23 24 26 28 29 31 32 29 23 20 18 16 13 12 12 11 10 10 11 10 7 5 4 4 3 3 3 2 2 2 2 1 0 0
2 1 3 7 10 9 12 16 15 14 16 19 21 22 24 26 26 22 19 16 14 12 10 10 9 8 7 8 8 7 5 3 2 2 2 3 3 2 1 1 2 1 0 0
1 1 2 4 6 6 7 9 9 8 11 15 16 16 17 17 15 13 12 11 10 8 8 7 6 5 5 5 5 4 3 1 1 1 1 1 2 1 0 0 0 0 0 0
0 1 1 3 4 5 5 4 5 6 8 9 9 11 11 9 7 6 7 8 8 7 6 5 4 4 3 3 3 3 2 1 0 0 0 0 0 0 0 0 0 0 0 0
0 0 1 2 3 5 4 2 3 4 5 4 5 8 7 5 4 5 7 8 8 7 6 5 4 4 4 4 3 2 1 0 0 0 0 0 0 0 0 0 0 0 0 0
0 0 1 1 2 4 4 2 1 2 2 2 4 7 6 4 4 6 7 8 7 5 4 4 5 5 5 4 2 1 1 0 0 0 0 0 0 0 0 0 0 0 0 0
0 0 0 0 2 4 4 3 2 1 2 3 6 7 6 5 5 6 6 6 5 2 1 2 3 3 3 3 1 0 0 1 1 0 0 0 0 0 0 0 0 0 0 0
1 1 2 3 5 5 5 5 4 4 6 7 7 7 7 6 6 6 5 3 2 1 0 0 1 1 1 1 0 0 0 1 1 0 0 0 0 0 0 0 0 0 0 0
3 4 4 6 6 5 5 6 6 7 8 9 9 8 8 7 6 5 4 1 0 0 0 0 0 0 0 0 0 0 0 1 1 0 0 0 0 0 0 0 0 0 0 0
4 4 5 6 5 4 4 4 5 7 7 7 8 7 6 5 4 3 2 1 0 0 0 0 0 0 0 0 0 0 0 0 0 0 0 0 0 0 0 0 0 0 0 0
3 4 5 5 5 4 3 3 4 5 5 5 5 4 3 2 2 2 1 0 0 0 0 0 0 0 0 0 0 0 0 0 0 0 0 0 0 0 0 0 0 0 0 0
2 3 3 3 3 3 2 1 2 2 3 4 4 2 1 1 1 1 0 0 0 0 0 0 0 0 0 0 0 0 0 0 0 0 0 0 0 0 0 0 0 0 0 0
2 2 1 1 1 1 1 0 0 0 2 3 2 1 0 0 0 1 0 0 0 0 0 0 0 0 0 0 0 0 0 0 0 0 0 0 0 0 0 0 0 0 0 0

GEFSNGP_con_prob3kmehi_150.txt.gz
EHI
0 0 0 0 0 0 0 0 0 1 3 4 5 7 15 29 39 45 49 50 51 51 50 47 44 42 44 47 45 41 38 34 30 26 20 16 13 11 7 5 4 3 3 3
0 0 0 0 0 0 0 0 1 2 3 4 7 10 19 33 44 49 51 51 51 53 52 50 46 43 43 45 45 42 40 36 33 29 25 20 15 11 7 5 3 3 2 3
0 0 0 0 0 0 0 0 1 2 4 7 11 16 23 34 46 52 54 54 53 55 56 55 51 48 47 48 48 46 42 38 34 32 30 25 18 12 8 5 3 3 3 3
0 0 0 0 0 0 0 1 1 3 9 16 23 28 31 37 47 55 59 58 55 55 56 56 55 54 56 55 51 47 42 36 32 31 30 25 19 13 9 5 3 3 2 2
0 0 0 0 1 1 1 3 4 8 17 27 38 43 42 44 52 60 64 62 58 55 54 54 55 56 58 55 47 42 38 33 29 27 25 21 17 12 7 4 3 1 1 1
0 0 0 1 2 3 3 7 11 17 26 37 46 50 50 53 58 63 64 63 61 57 53 51 52 53 53 49 40 34 32 30 26 23 21 17 15 12 7 4 3 1 0 0
0 0 0 2 4 5 7 13 19 25 35 45 51 53 55 59 61 61 59 60 60 57 52 49 49 50 48 43 36 30 28 26 25 22 18 15 14 12 7 4 3 2 0 0
0 0 0 1 3 5 10 18 25 32 41 52 59 60 60 61 60 58 56 57 56 53 49 48 48 50 48 42 34 29 26 23 22 21 17 16 15 13 9 7 5 3 2 2
0 1 1 2 4 7 12 19 27 36 45 54 61 61 59 58 56 53 53 51 48 46 44 43 44 46 46 41 34 29 24 20 18 17 16 16 15 12 11 10 9 7 6 6
1 2 4 7 8 11 16 20 27 36 43 48 51 52 52 51 48 45 42 39 37 38 37 35 34 36 36 34 30 26 22 16 13 13 13 11 9 7 7 7 7 7 6 6
4 5 6 8 10 14 19 23 27 31 34 35 37 38 40 40 37 32 29 26 27 29 29 26 24 24 25 24 22 20 17 13 11 9 7 4 3 2 2 2 2 3 2 2
5 6 6 6 9 14 20 24 26 26 25 23 24 27 29 29 26 22 19 18 19 20 19 17 15 15 15 15 15 13 12 10 8 4 2 1 0 0 0 0 0 0 0 0
5 6 5 6 10 15 18 21 23 23 21 18 19 21 22 20 18 15 14 14 14 12 11 9 9 9 9 9 9 9 7 5 3 1 0 0 0 0 0 0 0 0 0 0
2 3 4 8 12 13 15 17 19 20 18 18 17 17 16 14 12 11 11 10 9 7 6 5 6 6 7 7 6 5 4 1 0 0 0 0 0 0 0 0 0 0 0 0
1 0 1 5 8 8 8 11 13 14 16 16 13 10 10 10 9 8 6 6 6 5 5 4 5 5 6 6 6 5 3 1 0 0 0 0 0 0 0 0 0 0 0 0
0 0 0 1 2 2 2 4 6 9 12 11 8 5 6 7 7 4 2 2 3 4 4 5 5 4 5 6 6 6 4 1 0 0 0 0 0 0 0 0 0 0 0 0
0 0 0 0 0 0 0 1 2 5 8 8 5 4 5 5 4 1 0 1 2 3 3 4 4 3 4 6 6 6 5 3 1 1 0 0 0 0 0 0 0 0 0 0
0 0 0 0 0 0 0 0 0 2 5 6 5 4 3 3 1 0 0 1 2 2 2 2 2 2 3 4 5 5 4 3 3 2 1 0 0 0 0 0 0 0 0 0
0 0 0 0 0 0 0 0 0 1 2 4 4 3 1 1 0 0 0 0 1 1 1 1 1 1 1 1 2 2 2 2 2 2 1 0 0 0 0 0 0 0 0 0
0 0 0 0 0 0 0 0 0 0 1 2 1 1 0 0 0 0 0 0 0 0 0 0 0 0 0 0 0 0 1 1 1 1 0 0 0 0 0 0 0 0 0 0
0 0 0 0 0 0 0 0 0 0 0 0 0 0 0 0 0 0 0 0 0 0 0 0 0 0 0 0 0 0 0 0 0 0 0 0 0 0 0 0 0 0 0 0
0 0 0 0 0 0 0 0 0 0 0 0 0 0 0 0 0 0 0 0 0 0 0 0 0 0 0 0 0 0 0 0 0 0 0 0 0 0 0 0 0 0 0 0
0 0 0 0 0 0 0 0 0 0 0 0 0 0 0 0 0 0 0 0 0 0 0 0 0 0 0 0 0 0 0 0 0 0 0 0 0 0 0 0 0 0 0 0
0 0 0 0 0 0 0 0 0 0 0 0 0 0 0 0 0 0 0 0 0 0 0 0 0 0 0 0 0 0 0 0 0 0 0 0 0 0 0 0 0 0 0 0
0 0 0 0 0 0 0 0 0 0 0 0 0 0 0 0 0 0 0 0 0 0 0 0 0 0 0 0 0 0 0 0 0 0 0 0 0 0 0 0 0 0 0 0
0 0 0 0 0 0 0 0 0 0 0 0 0 0 0 0 0 0 0 0 0 0 0 0 0 0 0 0 0 0 0 0 0 0 0 0 0 0 0 0 0 0 0 0
0 0 0 0 0 0 0 0 0 0 0 0 0 0 0 0 0 0 0 0 0 0 0 0 0 0 0 0 0 0 0 0 0 0 0 0 0 0 0 0 0 0 0 0

GEFSNGP_con_prob3kmehi_156.txt.gz
EHI
0 0 0 0 0 0 0 0 0 0 0 0 0 1 2 6 13 19 21 22 24 26 27 27 24 23 24 22 18 17 18 16 12 9 9 9 9 7 6 5 4 3 2 1
0 0 0 0 0 0 0 0 0 0 0 0 1 3 5 9 16 22 25 26 27 28 29 30 30 28 27 24 20 19 19 16 12 10 10 10 9 7 6 6 4 3 1 0
0 0 0 0 0 0 0 0 0 0 0 1 3 5 7 11 19 26 29 31 32 31 30 32 34 33 29 25 22 21 19 16 13 11 10 9 9 8 7 7 5 3 1 0
0 0 0 0 0 0 0 0 1 2 2 3 5 6 9 13 19 25 28 31 34 33 31 32 33 32 29 26 23 21 19 15 13 11 8 7 8 8 7 7 6 5 3 1
0 0 0 0 0 0 0 1 2 4 5 6 8 9 11 15 19 23 26 30 34 33 32 33 33 33 30 26 21 18 15 13 12 11 8 6 6 6 7 6 6 4 2 1
0 0 0 0 0 0 0 1 3 6 7 8 9 10 11 17 24 27 29 31 33 33 33 34 35 33 30 23 17 13 11 10 11 13 11 8 7 6 6 5 3 2 1 0
0 0 0 0 1 0 0 1 4 8 8 9 12 14 14 19 28 33 34 33 35 35 32 32 32 30 27 22 17 14 12 10 10 11 11 10 8 6 4 3 1 0 0 0
0 0 0 0 0 0 1 3 6 8 10 13 19 22 22 24 29 35 36 37 39 38 32 27 27 27 27 24 19 17 14 11 9 8 9 9 6 3 2 1 1 1 1 1
0 0 0 1 1 1 2 4 6 8 12 19 23 25 25 27 30 32 34 35 37 36 31 24 23 25 26 23 19 14 11 9 8 7 7 6 4 2 1 2 2 1 1 0
1 1 2 3 4 5 5 5 7 9 14 21 24 23 23 25 26 25 25 24 24 24 24 21 19 19 19 17 13 9 7 7 7 6 5 4 4 3 3 2 2 1 0 0
2 2 4 6 7 7 7 8 10 12 14 20 25 24 20 17 15 15 14 13 11 11 13 14 13 11 10 9 7 5 5 6 5 5 4 3 3 3 2 1 1 0 0 0
1 1 3 5 6 6 7 9 12 13 13 15 20 19 13 8 6 6 8 8 6 5 5 6 6 6 5 5 5 4 4 4 3 4 4 2 1 1 1 0 0 0 0 0
0 0 1 4 5 5 5 7 9 10 9 9 10 9 5 3 2 4 5 6 5 3 3 3 3 3 2 3 4 4 2 1 1 2 2 1 0 0 0 0 0 0 0 0
0 1 2 4 4 4 3 5 7 7 6 5 4 3 3 2 3 3 4 5 5 3 3 3 3 1 1 2 4 3 1 0 1 1 1 1 0 0 0 0 0 0 0 0
0 1 2 3 4 3 2 3 4 4 4 3 3 3 3 3 3 3 4 4 3 3 2 2 2 1 0 2 3 2 0 0 0 0 0 0 0 0 0 0 0 0 0 0
0 0 1 3 4 3 2 1 1 1 1 1 2 2 2 2 3 3 3 3 1 1 1 1 1 0 1 2 2 1 0 0 0 0 0 0 0 0 0 0 0 0 0 0
0 0 0 1 2 1 1 0 0 0 0 0 1 1 1 1 1 2 2 1 0 0 0 0 0 0 1 2 2 0 0 0 0 0 0 0 0 0 0 0 0 0 0 0
0 0 0 0 0 0 0 0 0 0 0 0 0 0 0 0 0 1 1 0 0 0 0 0 0 0 1 2 1 0 0 0 0 0 0 0 0 0 0 0 0 0 0 0
0 0 0 0 0 0 0 0 0 0 0 0 0 0 0 0 0 0 0 0 0 0 0 0 0 0 0 1 1 0 0 0 0 0 0 0 0 0 0 0 0 0 0 0
0 0 0 0 0 0 0 0 0 0 0 0 0 0 0 0 0 0 0 0 0 0 0 0 0 0 0 0 0 0 0 0 0 0 0 0 0 0 0 0 0 0 0 0
0 0 0 0 0 0 0 0 0 0 0 0 0 0 0 0 0 0 0 0 0 0 0 0 0 0 0 0 0 0 0 0 0 0 0 0 0 0 0 0 0 0 0 0
0 0 0 0 0 0 0 0 0 0 0 0 0 0 0 0 0 0 0 0 0 0 0 0 0 0 0 0 0 0 0 0 0 0 0 0 0 0 0 0 0 0 0 0
0 0 0 0 0 0 0 0 0 0 0 0 0 0 0 0 0 0 0 0 0 0 0 0 0 0 0 0 0 0 0 0 0 0 0 0 0 0 0 0 0 0 0 0
0 0 0 0 0 0 0 0 0 0 0 0 0 0 0 0 0 0 0 0 0 0 0 0 0 0 0 0 0 0 0 0 0 0 0 0 0 0 0 0 0 0 0 0
0 0 0 0 0 0 0 0 0 0 0 0 0 0 0 0 0 0 0 0 0 0 0 0 0 0 0 0 0 0 0 0 0 0 0 0 0 0 0 0 0 0 0 0
0 0 0 0 0 0 0 0 0 0 0 0 0 0 0 0 0 0 0 0 0 0 0 0 0 0 0 0 0 0 0 0 0 0 0 0 0 0 0 0 0 0 0 0
0 0 0 0 0 0 0 0 0 0 0 0 0 0 0 0 0 0 0 0 0 0 0 0 0 0 0 0 0 0 0 0 0 0 0 0 0 0 0 0 0 0 0 0

GEFSNGP_con_prob3kmehi_162.txt.gz
EHI
0 0 0 0 0 0 0 0 0 0 0 2 5 8 14 23 30 39 53 66 77 85 84 78 74 69 64 61 58 55 50 46 44 41 38 36 32 32 32 29 26 25 21 19
0 0 0 0 0 0 0 0 0 0 1 3 7 10 17 25 30 36 47 60 73 82 83 80 76 73 68 65 62 59 55 51 47 43 41 38 34 34 36 34 30 27 23 19
0 0 0 0 0 0 0 1 1 1 3 6 10 13 19 26 31 35 41 52 65 75 80 80 78 75 71 68 66 63 58 53 50 48 46 41 36 37 38 37 34 31 26 21
0 0 0 0 0 0 0 2 3 5 6 9 12 15 20 27 33 36 40 49 60 70 75 76 76 76 74 73 70 64 56 52 50 49 49 47 42 39 38 36 34 31 26 23
0 0 0 0 0 0 0 2 6 8 9 12 14 15 21 30 36 38 42 49 57 65 72 75 77 78 78 77 73 64 57 52 49 48 49 49 45 40 36 32 29 26 24 22
0 0 0 1 1 1 1 4 10 14 17 19 19 20 28 38 41 42 44 46 52 62 70 75 79 81 82 80 72 62 57 54 51 48 46 44 43 40 33 27 25 24 23 21
0 0 1 3 4 5 8 15 21 26 29 31 32 36 42 45 45 46 46 46 51 61 69 74 78 80 80 76 66 56 53 54 52 47 41 38 40 40 33 27 25 24 23 20
0 1 4 10 15 20 28 35 39 40 40 40 43 47 49 47 45 46 47 47 52 61 68 72 75 75 72 65 56 49 49 51 50 45 39 37 38 38 33 28 25 23 20 17
4 6 11 19 28 36 44 50 52 51 47 45 45 46 47 46 44 46 48 49 52 57 62 66 68 69 64 57 50 47 47 48 47 43 39 38 37 34 30 26 23 18 14 12
14 16 18 23 30 39 46 51 53 52 48 44 41 41 43 42 42 43 45 48 50 52 53 55 59 60 57 51 48 47 45 44 41 37 35 35 33 28 23 21 18 13 9 8
21 21 22 24 29 35 40 42 44 45 42 39 37 35 36 37 37 38 40 43 45 46 44 43 46 48 46 43 43 44 41 38 33 29 27 26 22 18 14 12 10 7 5 5
23 22 23 27 31 34 33 32 33 34 34 33 31 28 27 29 31 32 34 36 36 34 32 31 31 31 31 31 33 35 35 31 25 22 20 17 12 7 5 4 3 2 2 1
21 22 24 27 28 28 25 22 23 25 26 26 24 22 21 21 22 24 26 26 25 22 20 21 21 19 18 19 22 26 26 23 19 17 15 12 8 4 2 1 0 0 0 0
17 19 21 21 19 17 15 13 14 17 19 19 19 20 18 14 14 16 18 18 17 16 15 17 16 13 11 12 14 17 17 16 15 14 13 11 8 6 3 2 1 0 0 0
11 13 14 12 11 9 8 7 8 10 13 15 17 19 18 12 10 11 13 14 15 15 14 14 12 10 9 9 10 10 10 11 12 12 11 9 7 5 3 2 1 0 0 0
4 6 7 6 5 5 4 4 5 7 9 12 15 18 17 13 10 10 12 14 14 14 12 11 9 8 7 8 7 7 7 7 7 8 7 6 5 4 2 1 1 0 0 0
2 4 5 4 2 2 2 2 2 4 6 8 10 12 13 12 9 9 10 12 13 12 10 8 7 6 6 5 5 5 4 3 3 4 4 3 3 3 2 1 0 0 0 0
3 4 5 3 2 2 2 2 1 2 2 4 5 6 7 8 6 5 6 7 8 8 7 6 6 5 3 3 2 2 1 1 1 2 2 2 3 3 3 2 0 0 0 0
2 3 3 2 2 3 3 3 2 1 1 1 1 2 3 4 3 2 1 2 3 4 4 4 4 3 2 1 0 0 0 0 1 1 1 1 1 2 2 1 0 0 0 0
0 1 1 1 1 2 3 3 3 3 2 1 1 2 3 4 3 1 0 0 1 1 2 3 2 1 1 1 0 0 0 0 1 0 0 0 0 1 1 0 0 0 0 0
0 0 0 0 0 1 2 3 3 4 4 3 2 3 4 4 3 1 0 0 0 1 1 2 1 1 0 0 0 0 0 0 0 0 0 0 0 0 0 0 0 0 0 0
0 0 0 0 0 0 1 1 2 3 4 3 3 2 2 3 3 1 0 0 0 0 1 1 1 0 0 0 0 0 0 0 0 0 0 0 0 0 0 0 0 0 0 0
0 0 0 0 0 0 0 0 1 3 3 3 2 1 0 1 2 2 0 0 0 0 0 1 0 0 0 0 0 0 0 0 0 0 0 0 0 0 0 0 0 0 0 0
0 0 0 0 0 0 0 0 1 2 2 2 1 1 0 1 1 1 0 0 0 0 0 0 0 0 0 0 0 0 0 0 0 0 0 0 0 0 0 0 0 0 0 0
0 0 0 0 0 0 0 0 0 1 1 1 1 1 1 0 0 0 0 0 0 0 0 0 0 0 0 0 0 0 0 0 0 0 0 0 0 0 0 0 0 0 0 0
0 0 0 0 0 0 0 0 1 1 0 0 0 1 1 0 0 0 0 0 0 0 0 0 0 0 0 0 0 0 0 0 0 0 0 0 0 0 0 0 0 0 0 0
0 0 0 0 0 0 0 1 2 2 1 0 0 0 1 0 0 0 0 0 0 0 0 0 0 0 0 0 0 0 0 0 0 0 0 0 0 0 0 0 0 0 0 0

GEFSNGP_con_prob3kmehi_168.txt.gz
EHI
0 0 0 0 0 0 0 0 0 1 3 8 13 15 18 27 36 45 57 66 73 84 93 95 94 95 94 90 86 85 85 82 78 74 69 63 59 55 51 48 45 43 39 36
0 0 0 0 0 0 0 0 0 2 5 9 14 17 22 29 38 48 60 70 77 86 93 94 93 93 92 90 87 85 83 81 78 75 70 64 61 58 53 49 45 40 37 36
0 0 0 0 0 0 1 1 2 4 8 14 19 24 30 36 42 53 64 74 81 86 90 92 92 90 89 89 89 87 83 80 77 75 71 66 63 61 56 53 49 43 38 36
0 0 0 0 0 1 2 3 5 7 13 21 26 32 39 44 49 57 66 74 80 84 87 90 91 89 88 89 89 89 86 82 78 74 70 67 64 62 60 58 55 50 42 36
0 0 0 0 0 1 3 5 8 12 18 25 30 35 42 49 56 64 69 73 77 79 83 88 91 90 89 89 90 90 88 85 81 75 68 65 63 62 62 62 58 51 43 36
0 0 0 1 1 2 3 7 13 19 25 30 36 42 50 56 63 71 74 75 75 75 79 86 90 89 88 88 88 87 85 84 81 75 68 64 62 61 62 61 55 48 41 35
0 0 1 3 4 8 14 21 27 32 37 43 52 61 66 68 72 75 76 75 74 74 79 84 86 86 86 85 83 80 79 78 76 71 66 63 62 62 60 57 53 48 41 36
1 4 9 14 17 25 37 43 45 48 53 59 67 74 76 76 77 78 76 74 71 72 75 78 79 80 80 79 77 75 74 73 71 66 61 60 61 60 58 56 52 48 42 37
10 15 24 31 35 43 53 57 56 57 61 65 70 73 73 75 78 78 74 71 68 68 69 70 72 73 72 71 71 73 73 71 66 61 58 56 54 53 51 50 47 43 38 34
21 26 32 36 40 45 51 54 54 56 59 62 64 66 67 70 75 77 72 66 64 64 64 65 66 68 67 67 68 69 69 65 59 55 52 47 42 38 36 36 35 33 30 27
29 31 33 34 35 37 41 45 48 51 56 57 55 56 60 64 69 71 67 60 57 57 58 59 60 61 62 63 64 64 61 54 48 45 42 37 29 22 19 19 19 19 19 17
31 32 33 34 33 33 35 38 40 44 49 49 45 45 47 50 56 60 58 52 48 47 48 50 52 53 54 55 58 57 52 44 38 37 35 30 23 13 7 6 5 6 7 7
29 29 30 30 29 30 30 29 30 32 35 37 36 35 35 36 40 44 44 40 38 39 41 43 43 43 44 45 48 48 43 37 31 27 27 25 21 14 7 2 0 0 1 1
24 25 25 24 24 24 22 20 20 22 24 26 28 29 28 27 29 32 32 30 31 33 35 36 36 34 34 35 36 37 34 29 24 20 18 19 20 17 11 4 1 1 0 0
18 21 21 21 19 18 16 14 15 18 19 20 21 23 25 24 25 26 25 25 27 28 29 30 31 31 29 27 27 29 26 22 19 16 13 14 15 14 10 5 3 2 1 1
13 16 19 19 16 13 12 12 14 16 18 18 18 19 21 23 24 24 24 24 25 24 23 24 26 27 26 24 23 23 21 16 13 12 11 11 11 10 7 5 4 3 3 2
9 11 14 15 13 10 10 10 13 15 16 16 16 16 16 18 21 22 21 21 22 21 19 18 19 21 21 20 19 18 16 12 9 9 9 9 8 7 5 5 3 2 2 2
4 5 8 9 8 6 6 7 9 11 11 12 12 11 10 12 15 17 16 16 18 19 17 13 12 14 16 16 15 14 13 10 8 6 6 6 5 4 4 3 1 1 1 1
2 3 4 5 4 3 2 3 4 4 4 5 6 7 7 8 11 12 12 13 14 15 13 9 7 9 11 11 10 10 10 9 7 5 5 4 3 3 3 1 0 0 0 1
2 2 3 3 2 1 1 1 1 1 1 1 2 3 4 6 8 9 10 10 10 10 8 5 3 4 6 6 6 7 7 6 5 5 5 3 2 2 2 1 0 0 0 1
1 1 1 1 1 0 0 0 0 1 1 1 0 1 3 6 6 6 7 7 6 5 4 2 1 1 2 3 4 5 4 4 4 4 3 2 1 1 1 0 0 0 0 0
0 0 0 0 0 0 0 0 0 1 1 1 1 2 4 7 6 5 5 5 5 4 3 1 0 0 0 1 3 3 3 3 3 3 2 1 0 0 0 0 0 0 0 0
0 0 0 0 0 0 0 0 0 0 0 0 1 4 8 9 7 5 4 3 4 3 2 1 0 0 0 0 1 2 1 1 2 2 2 1 0 0 0 0 0 0 0 0
0 0 0 0 0 0 0 0 1 1 1 2 3 6 8 9 8 6 3 2 1 1 1 0 0 0 0 0 1 1 0 0 1 1 1 1 0 0 0 0 0 0 0 0
0 0 0 0 0 0 0 0 1 1 2 3 4 4 5 6 7 7 5 3 1 0 0 0 0 0 0 0 0 0 0 0 0 0 1 1 0 0 0 0 0 0 0 0
0 0 0 0 0 0 0 0 0 1 1 2 2 2 3 4 6 8 7 3 1 0 1 0 0 0 0 0 0 0 0 1 1 1 1 1 0 0 0 0 0 0 0 0
0 0 0 0 0 0 0 0 0 1 0 0 0 1 2 5 7 9 7 3 0 0 1 0 0 0 0 0 0 0 0 1 2 2 1 0 0 0 0 0 0 0 0 0